FW5376 Weather Reports


time (UTC)temp
F
wind
direction
speed
knots
gust
knots
rain 1hr
in
rain 24hr
in
rain mn
in
humidity
%
barometer
mb
20260507160020 53 203 0.9 4.3 0.00 0.00 0.00 58 1020.3
20260507155021 53 225 0.9 2.6 0.00 0.00 0.00 58 1020.3
20260507154020 52 0.0 1.7 0.00 0.00 0.00 59 1020.4
20260507153020 52 225 1.7 4.3 0.00 0.00 0.00 58 1020.2
20260507152020 52 203 1.7 4.3 0.00 0.00 0.00 59 1020.3
20260507151040 52 180 1.7 4.3 0.00 0.00 0.00 59 1020.3
20260507150100 52 203 1.7 4.3 0.00 0.00 0.00 59 1020.3
20260507145020 52 225 0.9 2.6 0.00 0.00 0.00 59 1020.3
20260507144040 52 203 0.9 2.6 0.00 0.00 0.00 60 1020.2
20260507143020 51 203 1.7 5.2 0.00 0.00 0.00 60 1020.2
20260507142040 51 225 0.9 2.6 0.00 0.00 0.00 61 1020.3
20260507141040 51 225 0.9 2.6 0.00 0.00 0.00 61 1020.3
20260507140020 51 0.0 1.7 0.00 0.00 0.00 61 1020.3
20260507135021 51 0.0 1.7 0.00 0.00 0.00 61 1020.2
20260507134033 51 0.0 0.9 0.00 0.00 0.00 61 1020.2
20260507133104 51 0.0 0.9 0.00 0.00 0.00 61 1020.0
20260507132102 51 0.0 0.0 0.00 0.00 0.00 60 1019.9
20260507131020 51 0.0 1.7 0.00 0.00 0.00 60 1020.1
20260507130023 51 203 0.9 2.6 0.00 0.00 0.00 60 1020.0
20260507125022 51 0.0 1.7 0.00 0.00 0.00 61 1019.9
20260507124022 51 180 0.9 1.7 0.00 0.00 0.00 61 1020.0
20260507123022 51 180 0.9 2.6 0.00 0.00 0.00 61 1020.1
20260507122044 51 180 0.9 2.6 0.00 0.00 0.00 62 1020.2
20260507121022 51 0.0 0.9 0.00 0.00 0.00 62 1020.1
20260507120042 51 180 0.9 2.6 0.00 0.00 0.00 63 1020.2
20260507115021 51 0.0 1.7 0.00 0.00 0.00 63 1020.4
20260507114022 51 180 0.9 1.7 0.00 0.00 0.00 64 1020.5
20260507113023 51 180 0.9 1.7 0.00 0.00 0.00 64 1020.5
20260507112023 51 180 0.9 2.6 0.00 0.00 0.00 65 1020.6
20260507111022 51 0.0 0.0 0.00 0.00 0.00 65 1020.6
20260507110022 51 0.0 0.0 0.00 0.00 0.00 65 1020.5
20260507105021 51 0.0 0.0 0.00 0.00 0.00 65 1020.7
20260507104022 51 0.0 1.7 0.00 0.00 0.00 65 1020.6
20260507103022 51 0.0 0.0 0.00 0.00 0.00 65 1020.8
20260507102042 51 0.0 0.9 0.00 0.00 0.00 64 1020.8
20260507101021 51 0.0 0.0 0.00 0.00 0.00 64 1020.9
20260507100042 51 0.0 0.0 0.00 0.00 0.00 64 1020.9
20260507095022 51 0.0 0.0 0.00 0.00 0.00 64 1020.6
20260507094043 51 0.0 0.0 0.00 0.00 0.00 64 1020.7
20260507093041 51 0.0 0.9 0.00 0.00 0.00 64 1020.7
20260507092022 51 0.0 0.9 0.00 0.00 0.00 64 1020.7
20260507091021 51 0.0 0.0 0.00 0.00 0.00 63 1020.7
20260507090021 51 0.0 0.0 0.00 0.00 0.00 63 1020.6
20260507085021 51 0.0 0.0 0.00 0.00 0.00 63 1020.6
20260507084021 52 0.0 0.9 0.00 0.00 0.00 64 1020.5
20260507083022 52 203 0.9 2.6 0.00 0.00 0.00 64 1020.5
20260507082102 52 180 0.9 1.7 0.00 0.00 0.00 64 1020.5
20260507081029 52 180 1.7 4.3 0.00 0.00 0.00 64 1020.5
20260507080021 52 180 0.9 3.5 0.00 0.00 0.00 64 1020.6
20260507075022 52 203 0.9 2.6 0.00 0.00 0.00 65 1020.6
20260507074021 52 180 2.6 5.2 0.00 0.00 0.00 65 1020.5
20260507073021 52 180 0.9 1.7 0.00 0.00 0.00 65 1020.5
20260507072022 52 180 0.9 3.5 0.00 0.00 0.00 65 1020.5
20260507071021 52 203 0.9 4.3 0.00 0.00 0.00 65 1020.4
20260507070021 52 203 0.9 1.7 0.00 0.00 0.00 65 1020.5
20260507065023 53 180 0.9 2.6 0.00 0.00 0.00 65 1020.5
20260507064042 53 180 0.9 1.7 0.00 0.00 0.00 65 1020.5
20260507063020 53 203 0.9 3.5 0.00 0.00 0.00 65 1020.5
20260507062020 53 203 0.9 1.7 0.00 0.00 0.00 65 1020.6
20260507061020 53 0.0 1.7 0.00 0.00 0.00 65 1020.7
20260507060021 53 203 0.9 3.5 0.00 0.00 0.00 65 1020.6
20260507055021 53 0.0 1.7 0.00 0.00 0.00 65 1020.5
20260507054020 53 0.0 1.7 0.00 0.00 0.00 65 1020.7
20260507053041 54 0.0 1.7 0.00 0.00 0.00 65 1020.6
20260507052020 54 203 0.9 4.3 0.00 0.00 0.00 64 1020.6
20260507051453 54 0.0 1.7 0.00 0.00 0.00 64 1020.6
20260507050041 54 0.0 4.3 0.00 0.00 0.00 64 1020.6
20260507045020 54 203 0.9 3.5 0.00 0.00 0.00 64 1020.6
20260507044020 55 180 0.9 4.3 0.00 0.00 0.00 63 1020.7
20260507043020 55 0.0 2.6 0.00 0.00 0.00 63 1020.5
20260507042034 55 203 0.9 1.7 0.00 0.00 0.00 63 1020.4
20260507041040 55 203 0.9 2.6 0.00 0.00 0.00 62 1020.4
20260507040020 55 225 0.9 1.7 0.00 0.00 0.00 62 1020.5
20260507035100 55 0.0 1.7 0.00 0.00 0.00 62 1020.4
20260507034040 56 248 0.9 3.5 0.00 0.00 0.00 61 1020.3
20260507033020 56 180 0.9 4.3 0.00 0.00 0.00 61 1020.3
20260507032020 56 225 0.9 2.6 0.00 0.00 0.00 60 1020.2
20260507031021 56 203 1.7 3.5 0.00 0.00 0.00 60 1020.2
20260507030020 56 203 0.9 2.6 0.00 0.00 0.00 59 1020.0
20260507025020 57 180 0.9 2.6 0.00 0.00 0.00 59 1020.1
20260507024020 57 198 2.6 0.0 0.00 0.00 0.00 58 1020.1
20260507023933 57 203 1.7 5.2 0.00 0.00 0.00 58 1019.7